| time (UTC) | temp C | wind direction | speed KPH | gust KPH | rain 1hr cm | rain 24hr cm | rain mn cm | humidity % | barometer mb |
| 20260505041511 | 19 | 62 | 6.4 | 19.3 | 0.00 | 0.00 | 0.00 | 45 | 1002.8 |
| 20260505040011 | 20 | 127 | 6.4 | 20.9 | 0.00 | 0.00 | 0.00 | 43 | 1002.7 |
| 20260505034513 | 21 | 69 | 4.8 | 24.1 | 0.00 | 0.00 | 0.00 | 42 | 1002.6 |
| 20260505033003 | 21 | 113 | 6.4 | 20.9 | 0.00 | 0.00 | 0.00 | 40 | 1002.5 |
| 20260505031509 | 21 | 85 | 9.7 | 22.5 | 0.00 | 0.00 | 0.00 | 40 | 1002.4 |
| 20260505030012 | 20 | 79 | 6.4 | 16.1 | 0.00 | 0.00 | 0.00 | 42 | 1002.4 |
| 20260505024530 | 20 | 63 | 6.4 | 20.9 | 0.00 | 0.00 | 0.00 | 42 | 1002.3 |
| 20260505023006 | 20 | 94 | 6.4 | 12.9 | 0.00 | 0.00 | 0.00 | 41 | 1002.1 |
| 20260505020025 | 21 | 82 | 4.8 | 16.1 | 0.00 | 0.00 | 0.00 | 36 | 1002.0 |
| 20260505013004 | 22 | 71 | 3.2 | 9.7 | 0.00 | 0.00 | 0.00 | 29 | 1001.6 |
| 20260505003004 | 26 | 67 | 8.0 | 25.7 | 0.00 | 0.00 | 0.00 | 22 | 1000.9 |
| 20260505000024 | 26 | 76 | 9.7 | 17.7 | 0.00 | 0.00 | 0.00 | 22 | 1001.6 |
| 20260504234519 | 26 | 50 | 12.9 | 20.9 | 0.00 | 0.00 | 0.00 | 22 | 1001.6 |
| 20260504233004 | 27 | 67 | 9.7 | 20.9 | 0.00 | 0.00 | 0.00 | 21 | 1001.7 |
| 20260504231510 | 27 | 67 | 9.7 | 19.3 | 0.00 | 0.00 | 0.00 | 20 | 1001.6 |
| 20260504230016 | 27 | 360 | 6.4 | 20.9 | 0.00 | 0.00 | 0.00 | 19 | 1001.6 |
| 20260504224521 | 27 | 50 | 9.7 | 17.7 | 0.00 | 0.00 | 0.00 | 22 | 1001.6 |
| 20260504223007 | 27 | 92 | 4.8 | 20.9 | 0.00 | 0.00 | 0.00 | 22 | 1001.9 |
| 20260504221514 | 27 | 63 | 6.4 | 14.5 | 0.00 | 0.00 | 0.00 | 22 | 1001.8 |
| 20260504220020 | 28 | 92 | 6.4 | 14.5 | 0.00 | 0.00 | 0.00 | 22 | 1001.9 |
| 20260504214521 | 28 | 197 | 3.2 | 12.9 | 0.00 | 0.00 | 0.00 | 20 | 1002.2 |
| 20260504213009 | 28 | 128 | 0.0 | 12.9 | 0.00 | 0.00 | 0.00 | 17 | 1002.4 |
| 20260504211514 | 29 | 213 | 4.8 | 9.7 | 0.00 | 0.00 | 0.00 | 17 | 1002.4 |
| 20260504204525 | 29 | 81 | 3.2 | 17.7 | 0.00 | 0.00 | 0.00 | 19 | 1002.8 |
| 20260504203011 | 29 | 101 | 1.6 | 22.5 | 0.00 | 0.00 | 0.00 | 15 | 1002.9 |
| 20260504201518 | 28 | 48 | 3.2 | 12.9 | 0.00 | 0.00 | 0.00 | 15 | 1003.2 |
| 20260504191518 | 30 | 309 | 4.8 | 14.5 | 0.00 | 0.00 | 0.00 | 14 | 1004.1 |
| 20260504190024 | 29 | 261 | 4.8 | 11.3 | 0.00 | 0.00 | 0.00 | 15 | 1004.4 |
| 20260504184528 | 29 | 281 | 1.6 | 11.3 | 0.00 | 0.00 | 0.00 | 16 | 1004.7 |
| 20260504183017 | 28 | 348 | 1.6 | 9.7 | 0.00 | 0.00 | 0.00 | 16 | 1004.8 |
| 20260504181504 | 28 | 17 | 3.2 | 12.9 | 0.00 | 0.00 | 0.00 | 18 | 1005.0 |
| 20260504180009 | 27 | 289 | 3.2 | 12.9 | 0.00 | 0.00 | 0.00 | 18 | 1005.3 |
| 20260504174509 | 27 | 325 | 6.4 | 14.5 | 0.00 | 0.00 | 0.00 | 19 | 1005.4 |
| 20260504173020 | 28 | 279 | 4.8 | 11.3 | 0.00 | 0.00 | 0.00 | 20 | 1005.5 |
| 20260504171504 | 28 | 340 | 4.8 | 17.7 | 0.00 | 0.00 | 0.00 | 20 | 1005.7 |
| 20260504081507 | 12 | 214 | 4.8 | 11.3 | 0.00 | 0.00 | 0.00 | 42 | 1007.0 |
| 20260504050015 | 15 | 224 | 1.6 | 4.8 | 0.00 | 0.00 | 0.00 | 33 | 1007.9 |
| 20260504044514 | 15 | 204 | 0.0 | 3.2 | 0.00 | 0.00 | 0.00 | 31 | 1008.0 |
| 20260504043021 | 16 | 204 | 0.0 | 3.2 | 0.00 | 0.00 | 0.00 | 32 | 1008.0 |